CAPE
0 0 0 0 0 0 0 0 0 0 0 0 0 0 0 0 0 0 0 0 0 0 0 0 0 0 0 0 0 0 0 0 0 0 0 0 0 0 0 0 0 0 0 0
0 0 0 0 0 0 0 0 0 0 0 0 0 0 0 0 0 0 0 0 0 0 0 0 0 0 0 0 0 0 0 0 0 0 0 0 0 0 0 0 0 0 0 0
0 0 0 0 0 0 0 0 0 0 0 0 0 0 0 0 0 0 0 0 0 0 0 0 0 0 0 0 0 0 0 0 0 0 0 0 0 0 0 0 0 0 0 0
0 0 0 0 0 0 0 0 0 0 0 0 0 0 0 0 0 0 0 0 0 0 0 0 0 0 0 0 0 0 0 0 0 0 0 0 0 0 0 0 0 0 0 0
0 0 0 0 0 0 0 0 0 0 0 0 0 0 0 0 0 0 0 0 0 0 0 0 0 0 0 0 0 0 0 0 0 0 0 0 0 0 0 0 0 0 0 0
0 0 0 0 0 0 0 0 0 0 0 0 0 0 0 0 0 0 0 0 0 0 0 0 0 0 0 0 0 0 0 0 0 0 0 0 0 0 0 0 0 0 0 0
0 0 0 0 0 0 0 0 0 0 0 0 0 0 0 0 0 0 0 0 0 0 0 0 0 0 0 0 0 0 0 0 0 0 0 0 0 0 0 0 0 0 0 0
0 0 0 0 0 0 0 0 0 0 0 0 0 0 0 0 0 0 0 0 0 0 0 0 0 0 0 0 0 0 0 0 0 0 0 0 0 0 0 0 0 0 0 0
0 0 0 0 0 0 0 0 0 0 0 0 0 0 0 0 0 0 0 0 0 0 0 0 0 0 0 0 0 0 0 0 0 0 0 0 0 0 0 0 0 0 0 0
0 0 0 0 0 0 0 0 0 0 0 0 0 0 0 0 0 0 0 0 0 0 0 0 0 0 0 0 0 0 0 0 0 0 0 0 0 0 0 0 0 0 0 0
0 0 0 0 0 0 0 0 0 0 0 0 0 0 0 0 0 0 0 0 0 0 0 0 0 0 0 0 0 0 0 0 0 0 0 0 0 0 0 0 0 0 0 0
0 0 0 0 0 0 0 0 0 0 0 0 0 0 0 0 0 0 0 0 0 0 0 0 0 0 0 0 0 0 0 0 0 0 0 0 0 0 0 0 0 0 0 0
0 0 0 0 0 0 0 0 0 0 0 0 0 0 0 0 0 0 0 0 0 0 0 0 0 0 0 0 0 0 0 0 0 0 0 0 0 0 0 0 0 0 0 0
0 0 3 0 0 0 0 0 0 0 0 0 0 0 0 0 0 0 0 0 0 0 0 0 0 0 0 0 0 0 0 0 0 0 0 0 0 0 0 0 0 0 0 0
0 0 0 0 0 0 0 0 0 0 0 0 0 0 0 0 0 0 0 0 0 0 0 0 0 0 0 0 0 0 0 0 0 0 0 0 0 0 0 0 0 0 0 0
0 0 0 0 0 0 0 0 0 0 0 0 0 0 0 0 0 0 0 0 0 0 0 0 0 0 0 0 0 0 0 0 0 0 0 0 0 0 0 0 0 0 0 0
0 0 0 0 0 0 0 0 0 0 0 0 0 0 0 0 0 0 0 0 0 0 0 0 0 0 0 0 0 0 0 0 0 0 0 0 0 0 0 0 0 0 0 0
0 0 0 0 0 0 0 0 0 0 0 0 0 0 0 0 0 0 0 0 0 0 0 0 0 0 0 0 0 0 0 0 0 0 0 0 0 0 0 0 0 0 0 0
0 0 0 0 0 0 0 0 0 0 0 0 0 0 0 0 0 0 0 0 0 0 0 0 0 0 0 0 0 0 0 0 0 0 0 0 0 0 0 0 0 0 0 0
0 0 0 0 0 0 0 0 0 0 0 0 0 0 0 0 0 0 0 0 0 0 0 0 0 0 0 0 0 0 0 0 0 0 0 0 0 0 0 0 0 0 0 0
0 0 0 1 1 0 0 0 0 0 0 0 0 0 0 0 0 0 0 0 0 0 0 0 0 0 0 0 0 0 0 0 0 0 0 0 0 0 0 0 0 0 0 0
0 0 0 0 0 0 0 0 0 0 0 0 0 0 0 0 0 0 0 0 0 0 0 0 0 0 0 0 0 0 0 0 0 0 0 0 0 0 0 0 0 0 0 0
0 0 0 0 0 0 0 0 0 0 0 0 0 0 0 0 0 0 0 0 0 0 0 0 0 0 0 0 0 0 0 0 0 0 0 0 0 0 0 0 0 0 0 0
0 0 0 0 0 0 0 0 0 0 0 0 0 0 0 0 0 0 0 0 0 0 0 0 0 0 0 0 0 0 0 0 0 0 0 0 0 0 0 0 0 0 0 0
0 0 0 0 0 0 0 0 0 0 0 0 0 0 0 0 0 0 0 0 0 0 0 0 0 0 0 0 0 0 0 0 0 0 0 0 0 0 0 0 0 0 0 4
0 1 0 1 0 0 0 0 0 0 0 0 0 0 0 0 0 0 0 0 0 0 0 0 0 0 0 0 0 0 0 0 0 0 0 0 0 0 0 0 0 0 3 7
CIN
0 0 0 0 0 0 0 0 0 0 0 0 0 0 0 0 0 0 0 0 0 0 0 0 0 0 0 0 0 0 0 0 0 0 0 0 0 0 0 0 0 0 0 0
0 0 0 0 0 0 0 0 0 0 0 0 0 0 0 0 0 0 0 0 0 0 0 0 0 0 0 0 0 0 0 0 0 0 0 0 0 0 0 0 0 0 0 0
0 0 0 0 0 0 0 0 0 0 0 0 0 0 0 0 0 0 0 0 0 0 0 0 0 0 0 0 0 0 0 0 0 0 0 0 0 0 0 0 0 0 0 0
0 0 0 0 0 0 0 0 0 0 0 0 0 0 0 0 0 0 0 0 0 0 0 0 0 0 0 0 0 0 0 0 0 0 0 0 0 0 0 0 0 0 0 0
0 0 0 0 0 0 0 0 0 0 0 0 0 0 0 0 0 0 0 0 0 0 0 0 0 0 0 0 0 0 0 0 0 0 0 0 0 0 0 0 0 0 0 0
0 0 0 0 0 0 0 0 0 0 0 0 0 0 0 0 0 0 0 0 0 0 0 0 0 0 0 0 0 0 0 0 0 0 0 0 0 0 0 0 0 0 0 0
0 0 0 0 0 0 0 0 0 0 0 0 0 0 0 0 0 0 0 0 0 0 0 0 0 0 0 0 0 0 0 0 0 0 0 0 0 0 0 0 0 0 0 0
0 0 0 0 0 0 0 0 0 0 0 0 0 0 0 0 0 0 0 0 0 0 0 0 0 0 0 0 0 0 0 0 0 0 0 0 0 0 0 0 0 0 0 0
0 0 0 0 0 0 0 0 0 0 0 0 0 0 0 0 0 0 0 0 0 0 0 0 0 0 0 0 0 0 0 0 0 0 0 0 0 0 0 0 0 0 0 0
0 0 0 0 0 0 0 0 0 0 0 0 0 0 0 0 0 0 0 0 0 0 0 0 0 0 0 0 0 0 0 0 0 0 0 0 0 0 0 0 0 0 0 0
0 0 0 0 0 0 0 0 0 0 0 0 0 0 0 0 0 0 0 0 0 0 0 0 0 0 0 0 0 0 0 0 0 0 0 0 0 0 0 0 0 0 0 0
0 0 0 0 0 0 0 0 0 0 0 0 0 0 0 0 0 0 0 0 0 0 0 0 0 0 0 0 0 0 0 0 0 0 0 0 0 0 0 0 0 0 0 0
0 0 0 0 0 0 0 0 0 0 0 0 0 0 0 0 0 0 0 0 0 0 0 0 0 0 0 0 0 0 0 0 0 0 0 0 0 0 0 0 0 0 0 0
0 0 -77 0 0 0 0 0 0 0 0 0 0 0 0 0 0 0 0 0 0 0 0 0 0 0 0 0 0 0 0 0 0 0 0 0 0 0 0 0 0 0 0 0
0 0 0 0 0 0 0 0 0 0 0 0 0 0 0 0 0 0 0 0 0 0 0 0 0 0 0 0 0 0 0 0 0 0 0 0 0 0 0 0 0 0 0 0
0 0 0 0 0 0 0 0 0 0 0 0 0 0 0 0 0 0 0 0 0 0 0 0 0 0 0 0 0 0 0 0 0 0 0 0 0 0 0 0 0 0 0 0
0 0 0 0 0 0 0 0 0 0 0 0 0 0 0 0 0 0 0 0 0 0 0 0 0 0 0 0 0 0 0 0 0 0 0 0 0 0 0 0 0 0 0 0
0 0 0 0 0 0 0 0 0 0 0 0 0 0 0 0 0 0 0 0 0 0 0 0 0 0 0 0 0 0 0 0 0 0 0 0 0 0 0 0 0 0 0 0
0 0 0 0 0 0 0 0 0 0 0 0 0 0 0 0 0 0 0 0 0 0 0 0 0 0 0 0 0 0 0 0 0 0 0 0 0 0 0 0 0 0 0 0
0 0 0 0 0 0 0 0 0 0 0 0 0 0 0 0 0 0 0 0 0 0 0 0 0 0 0 0 0 0 0 0 0 0 0 0 0 0 0 0 0 0 0 0
0 0 0 0 -2 0 0 0 0 0 0 0 0 0 0 0 0 0 0 0 0 0 0 0 0 0 0 0 0 0 0 0 0 0 0 0 0 0 0 0 0 0 0 0
0 0 0 -1 0 0 0 0 0 0 0 0 0 0 0 0 0 0 0 0 0 0 0 0 0 0 0 0 0 0 0 0 0 0 0 0 0 0 0 0 0 0 0 0
0 0 0 0 0 0 0 0 0 0 0 0 0 0 0 0 0 0 0 0 0 0 0 0 0 0 0 0 0 0 0 0 0 0 0 0 0 0 0 0 0 0 0 0
0 0 0 0 0 0 0 0 0 0 0 0 0 0 0 0 0 0 0 0 0 0 0 0 0 0 0 0 0 0 0 0 0 0 0 0 0 0 0 0 0 0 0 0
0 0 0 0 0 0 0 0 0 0 0 0 0 0 0 0 0 0 0 0 0 0 0 0 0 0 0 0 0 0 0 0 0 0 0 0 0 0 0 0 0 0 0 -1
0 -1 0 -8 0 0 0 0 0 0 0 0 0 0 0 0 0 0 0 0 0 0 0 0 0 0 0 0 0 0 0 0 0 0 0 0 0 0 0 0 0 0 0 0
Wind_Speed
2 2 9 13 9 2 3 4 8 5 4 4 10 17 20 20 9 17 15 12 16 22 13 12 14 13 11 9 10 10 9 7 5 2 1 2 3 3 3 4 6 6 8 9
4 12 9 5 4 5 3 3 8 8 2 6 8 19 15 17 22 16 19 13 17 13 12 15 17 15 14 14 12 10 9 8 7 4 3 2 2 3 4 4 5 7 9 10
9 4 5 7 4 6 5 7 5 8 5 4 7 10 8 8 9 13 13 10 13 18 18 17 19 20 15 15 15 13 11 9 8 8 3 2 2 3 3 3 5 7 9 11
8 2 6 4 7 8 5 6 3 2 3 5 3 18 4 7 11 9 11 11 14 15 14 16 19 19 19 16 13 12 11 9 8 8 6 6 4 3 3 4 6 8 9 11
9 7 5 5 8 10 7 3 4 1 3 3 4 6 5 3 8 19 10 9 10 12 15 17 20 22 21 17 13 12 11 8 7 8 7 5 6 5 6 6 8 9 10 10
6 1 6 6 3 1 5 4 4 4 2 2 9 11 5 7 11 9 10 7 7 8 11 12 13 15 16 14 13 12 12 9 8 7 7 7 8 6 6 6 7 7 6 6
1 5 3 3 5 3 3 6 6 6 3 11 5 4 13 7 12 13 14 8 6 7 8 9 13 16 16 18 15 12 13 11 9 8 7 7 7 7 8 8 6 9 7 7
5 9 10 6 7 8 6 9 9 10 6 20 4 12 11 17 16 7 6 7 5 7 7 12 15 16 17 18 16 14 12 10 9 7 7 6 6 4 5 7 7 7 7 8
8 10 2 2 2 4 6 7 3 3 2 6 7 14 7 6 13 4 13 6 10 9 10 13 13 15 16 17 17 15 12 10 8 8 5 5 4 5 6 8 8 6 9 9
2 6 1 3 3 0 6 5 4 2 4 8 18 31 19 12 16 11 12 15 11 8 8 10 12 14 13 14 13 13 12 11 8 7 4 3 4 5 6 7 8 9 11 12
6 6 3 2 10 13 4 3 1 2 5 7 13 18 5 8 10 13 13 8 9 10 10 11 12 13 14 13 13 13 11 9 8 6 4 3 4 5 6 7 8 10 11 13
7 6 9 16 1 3 3 9 10 7 8 4 3 37 3 1 9 8 8 7 7 8 9 10 12 13 15 15 12 13 10 9 7 5 3 2 3 5 6 7 9 10 12 13
10 2 3 10 2 4 7 8 7 2 2 19 8 33 7 4 7 10 9 9 9 9 9 9 11 16 17 15 13 12 10 8 7 6 3 3 3 4 7 8 9 10 12 13
11 8 12 21 18 6 6 8 19 19 17 14 32 34 38 36 18 11 9 11 14 11 12 11 11 14 15 14 14 11 9 8 7 6 3 2 3 5 6 8 9 11 11 13
11 13 19 25 30 8 3 10 16 20 31 24 34 22 37 40 20 27 19 23 15 11 12 15 15 15 14 14 13 11 9 9 7 6 4 3 4 5 6 8 9 10 12 11
2 17 14 24 28 21 18 26 25 27 37 29 30 33 44 31 24 27 28 26 20 17 14 14 14 15 17 18 15 13 11 9 7 5 4 3 3 4 6 8 9 11 12 12
8 6 7 26 20 6 5 34 29 28 37 26 31 46 37 28 24 28 25 24 24 20 13 14 18 17 16 17 16 14 11 9 8 6 4 3 3 5 6 8 9 10 11 12
17 11 10 18 9 18 19 19 21 28 35 23 33 36 31 31 33 23 15 23 21 11 11 12 12 14 15 14 14 13 11 9 8 5 4 1 3 5 7 8 9 10 11 12
28 22 12 10 15 18 14 20 10 16 24 31 30 27 34 33 11 26 13 11 19 12 8 10 13 15 15 16 15 13 11 9 7 5 3 1 2 4 7 7 10 10 11 12
27 23 19 13 11 16 18 33 20 11 24 44 28 33 31 16 10 25 6 5 5 8 12 17 17 17 17 14 14 14 12 9 7 6 3 1 2 4 6 7 9 10 10 13
7 11 24 24 21 11 14 24 8 8 31 34 10 21 20 16 17 3 5 5 6 9 15 15 17 16 15 14 13 13 11 9 7 5 3 1 1 3 4 7 8 8 10 12
20 12 11 15 13 21 17 5 20 33 32 29 15 9 9 13 7 7 8 11 13 16 17 16 17 15 13 13 12 12 11 10 7 5 3 1 2 2 3 5 7 8 9 11
21 23 20 18 13 11 11 22 29 29 26 27 5 6 13 10 12 11 9 12 13 17 16 14 17 17 11 11 10 12 11 11 8 6 4 2 2 3 4 3 7 8 8 8
15 24 21 22 20 13 14 18 19 18 27 27 13 9 11 12 9 11 14 14 14 14 16 14 18 17 14 11 10 11 12 10 8 7 6 3 2 4 3 4 5 6 7 8
8 7 16 23 23 23 20 24 24 22 12 14 8 12 20 13 13 16 16 18 18 17 16 16 16 16 15 12 12 11 10 10 8 7 6 4 3 4 5 5 5 7 8 10
18 24 15 18 18 21 30 25 27 25 24 21 17 12 13 17 17 17 16 17 19 21 18 16 14 15 15 14 13 10 8 7 8 8 5 3 3 4 4 7 7 10 13 17
Wind_Direction
12 115 211 211 202 182 162 196 236 246 232 205 230 249 258 271 234 251 242 212 211 221 212 192 185 183 178 176 172 178 173 183 160 156 196 225 234 265 274 266 278 292 292 286
43 234 198 142 162 166 164 211 259 284 262 198 272 262 258 254 257 248 248 226 222 221 194 189 186 184 187 182 184 177 183 177 183 176 188 188 219 247 257 268 272 264 278 284
179 220 107 137 156 163 205 193 225 232 338 255 313 267 237 274 248 264 244 223 213 212 203 195 189 190 185 188 186 184 181 178 184 184 171 197 260 273 281 280 280 283 289 298
232 232 157 161 216 150 235 207 203 290 40 250 360 294 244 246 270 255 257 203 220 208 207 197 193 192 192 191 186 182 177 178 181 177 184 195 215 241 222 245 270 287 284 282
238 162 160 183 219 161 225 120 136 144 212 27 256 273 233 14 266 264 266 221 219 209 200 196 195 196 193 185 183 184 177 174 170 175 187 199 228 241 264 277 281 275 267 265
255 343 171 199 69 130 137 98 68 65 103 245 222 202 164 183 211 257 268 238 211 207 203 202 195 191 191 181 179 177 178 182 173 173 186 209 232 254 270 282 282 276 281 286
261 208 172 157 102 27 92 66 322 315 334 250 140 214 259 228 232 220 236 245 215 213 195 186 182 187 185 188 182 179 179 184 178 178 187 206 230 248 267 281 287 296 305 299
188 267 179 182 197 179 170 167 167 247 258 289 140 246 271 222 242 234 248 251 231 225 193 195 194 194 190 186 180 182 178 179 175 178 201 212 233 248 264 274 281 289 288 289
181 267 88 25 111 138 180 189 170 92 121 298 238 261 288 221 259 261 252 230 242 230 200 200 194 194 191 185 180 178 179 176 172 185 197 222 242 259 275 283 280 288 289 293
233 295 244 155 145 16 181 164 95 351 251 261 269 276 268 214 236 238 246 237 226 235 206 200 197 193 193 186 170 175 175 172 169 175 194 226 256 278 281 285 299 301 296 294
148 154 219 120 209 174 139 212 225 185 156 200 278 281 185 185 199 216 235 228 212 217 210 202 198 192 187 179 171 170 164 156 166 172 180 251 296 299 302 305 304 292 294 292
199 167 229 241 94 358 178 192 171 185 238 240 135 273 343 79 213 217 234 205 223 223 211 202 192 181 183 183 171 166 160 164 154 147 157 251 288 296 296 289 280 293 294 294
172 231 317 278 338 5 211 197 220 323 327 226 191 261 133 127 199 206 216 232 232 225 218 195 182 192 192 180 168 164 157 140 140 148 165 223 271 287 282 287 294 297 299 299
160 167 206 240 259 134 193 206 217 219 243 235 235 260 277 263 269 249 239 233 226 217 216 200 200 199 193 179 163 152 139 145 148 147 171 222 262 271 282 289 299 301 301 300
174 226 215 247 262 249 237 244 219 216 240 229 253 248 257 269 265 270 263 268 264 215 209 204 201 196 182 167 152 145 140 142 147 158 169 219 257 277 293 299 303 306 303 302
203 245 230 248 256 259 249 253 256 247 250 261 262 262 257 277 284 283 275 275 270 248 216 209 198 185 180 170 153 148 145 145 150 156 174 212 264 296 304 314 312 305 304 304
181 200 222 252 255 239 217 244 259 266 264 260 268 263 271 269 266 259 265 267 265 264 206 197 193 185 174 164 150 148 146 143 147 158 177 214 300 312 318 308 303 306 307 307
230 212 228 251 260 240 247 254 244 252 263 262 253 263 274 266 265 267 248 259 265 229 200 190 169 162 154 141 132 129 133 137 142 148 168 195 295 305 313 310 311 311 307 309
222 232 237 234 227 256 310 261 193 226 264 256 258 264 262 270 298 270 213 216 238 217 182 160 151 141 136 130 131 127 134 138 142 152 171 208 301 313 314 312 314 313 312 313
231 223 220 215 226 224 229 245 232 253 271 263 253 255 260 261 263 275 292 202 175 133 143 139 139 137 132 135 136 134 138 144 151 162 160 185 345 292 301 309 308 311 307 303
163 206 218 226 238 244 234 241 118 191 251 263 215 233 241 235 229 247 119 105 124 132 133 131 136 136 133 137 137 134 139 147 151 151 136 143 289 291 284 304 305 306 307 304
220 188 206 226 235 245 226 123 203 226 245 259 240 210 202 216 207 190 160 146 140 139 143 144 131 130 137 141 141 138 142 142 143 133 129 99 284 290 325 295 308 315 309 302
234 212 217 196 207 213 193 211 219 238 243 259 230 202 204 205 207 183 170 155 153 149 143 146 136 134 138 145 147 136 143 150 141 135 140 162 343 7 328 315 330 315 312 309
226 237 234 245 243 221 220 231 238 227 236 254 238 224 188 209 177 172 153 158 156 155 150 147 141 142 145 151 144 135 149 140 143 136 135 119 70 19 2 349 333 300 312 318
233 320 249 254 254 257 255 240 241 246 244 256 242 210 209 193 198 184 174 164 160 159 152 158 154 150 146 143 140 145 144 152 144 134 122 97 61 25 3 358 307 315 319 325
239 240 230 237 235 238 248 252 250 250 244 242 237 225 217 193 201 184 177 168 163 157 155 155 158 147 146 144 140 138 144 158 145 128 117 108 88 50 18 343 326 333 348 344